Flag for French Polynesia Weather past 2 weeks in Papeete, Tahiti, French Polynesia

Now
86 °F

Scattered clouds.


Feels Like: 95 °F
Forecast: 79 / 86 °F
Wind: 17 mph from Northeast

Location: Tahiti-Faaa

Current Time: Jan 28, 2015 at 3:14:48 PM

Latest Report: Jan 28, 2015 at 2:30 PM


Visibility: N/A

Pressure: 29.80 "Hg

Humidity: 70%

Dew point: 75 °F

Location of PapeeteLocation

Historic Weather in Papeete — Graph

°F

Papeete temperature yesterday

Maximum temperature yesterday: 88 °F (at 1:00 PM)
Minimum temperature yesterday: 75 °F (at 3:00 AM)
Average temperature yesterday: 82 °F

Past Weeks' High & Low Weather Summary

 TemperatureHumidityPressure
High90 °F (Jan 14, 11:00 AM)94% (Jan 15, 1:00 AM)29.92 "Hg (Jan 15, 1:00 AM)
Low75 °F (Jan 19, 3:30 AM)59% (Jan 13, 2:00 PM)29.59 "Hg (Jan 21, 2:30 PM)
Average81 °F80%29.77 "Hg
* Reported Jan 13 2:00 PM — Jan 28 2:00 PM, Papeete, Weather by CustomWeather, © 2014

Note: Actual official high and low records may vary slightly from our data, if they occured in-between our weather recording intervals... More about our weather records

Advertising

Papeete weather history for previous 24 hours

 ConditionsComfort  
Time TempWeatherWind HumidityBarometerVisibility
2:00 PM
Jan 28
88 °FBroken clouds.16 mph66%29.80 "HgN/A
1:30 PM88 °FBroken clouds.16 mph66%29.80 "HgN/A
1:00 PM88 °FScattered clouds.15 mph66%29.80 "HgN/A
12:30 PM88 °FPassing clouds.15 mph70%29.83 "HgN/A
12:00 PM88 °FScattered clouds.16 mph70%29.83 "HgN/A
11:30 AM88 °FScattered clouds.14 mph66%29.83 "HgN/A
11:00 AM88 °FScattered clouds.13 mph66%29.83 "HgN/A
10:00 AM86 °FPartly sunny.12 mph70%29.86 "HgN/A
9:30 AM86 °FScattered clouds.12 mph70%29.86 "HgN/A
9:00 AM86 °FScattered clouds.9 mph70%29.86 "HgN/A
8:30 AM86 °FScattered clouds.2 mph66%29.86 "HgN/A
8:00 AM84 °FScattered clouds.3 mph66%29.86 "HgN/A
7:30 AM84 °FScattered clouds.2 mph70%29.83 "HgN/A
7:00 AM81 °FScattered clouds.No wind74%29.83 "HgN/A
6:30 AM79 °FScattered clouds.2 mph79%29.83 "HgN/A
6:00 AM77 °FScattered clouds.2 mph83%29.83 "HgN/A
5:30 AM77 °FWarm.3 mph83%29.80 "HgN/A
5:00 AM77 °FWarm.3 mph83%29.80 "HgN/A
4:30 AM77 °FWarm.2 mph83%29.80 "HgN/A
4:00 AM77 °FWarm.No wind83%29.80 "HgN/A
3:30 AM77 °FWarm.No wind83%29.77 "HgN/A
3:00 AM77 °FPassing clouds.3 mph83%29.77 "HgN/A
2:30 AM79 °FPassing clouds.2 mph79%29.80 "HgN/A
2:00 AM79 °FPassing clouds.3 mph79%29.80 "HgN/A
1:30 AM79 °FPassing clouds.1 mph79%29.80 "HgN/A
1:00 AM79 °FPassing clouds.3 mph79%29.80 "HgN/A
12:30 AM79 °FPassing clouds.No wind84%29.83 "HgN/A
12:00 AM79 °FPassing clouds.No wind79%29.83 "HgN/A
11:30 PM
Jan 27
79 °FPartly cloudy.2 mph79%29.83 "HgN/A
11:00 PM81 °FPartly cloudy.No wind74%29.86 "HgN/A
10:30 PM81 °FPassing clouds.No wind79%29.86 "HgN/A
10:00 PM81 °FPassing clouds.1 mph79%29.86 "HgN/A
9:30 PM81 °FPassing clouds.3 mph74%29.83 "HgN/A
9:00 PM81 °FPassing clouds.No wind74%29.83 "HgN/A
8:30 PM81 °FPassing clouds.1 mph79%29.83 "HgN/A
8:00 PM82 °FScattered showers. Passing clouds.3 mph74%29.83 "HgN/A
7:30 PM82 °FScattered showers. Passing clouds.3 mph74%29.80 "HgN/A
7:00 PM82 °FScattered showers. Partly cloudy.3 mph70%29.80 "HgN/A
6:30 PM82 °FScattered showers. Broken clouds.3 mph74%29.80 "HgN/A
6:00 PM84 °FScattered showers. Broken clouds.5 mph70%29.77 "HgN/A
5:30 PM84 °FScattered showers. Broken clouds.5 mph66%29.77 "HgN/A
5:00 PM86 °FScattered showers. Broken clouds.3 mph66%29.77 "HgN/A
4:30 PM86 °FScattered showers. Broken clouds.3 mph66%29.74 "HgN/A
4:00 PM86 °FScattered showers. Broken clouds.5 mph66%29.74 "HgN/A
3:30 PM88 °FScattered showers. Broken clouds.5 mph62%29.74 "HgN/A
3:00 PM88 °FScattered showers. Partly sunny.6 mph70%29.74 "HgN/A
Weather by CustomWeather, © 2014

See weather overviewHow to use our weather pages